Board Camp, AR

5:40 PM CST on February 09, 2016 (GMT -0600)
Mena

Weather History for KMEZ - January, 2014

Change the Weather History Date:

Monday, January 13, 2014

  Actual Average (KDEQ) Record (KDEQ)
Temperature  
Mean Temperature 50 °F 41 °F  
Max Temperature 60 °F 53 °F 83 °F (1941)
Min Temperature 39 °F 30 °F 7 °F (1963)
Degree Days  
Heating Degree Days 16 24  
Month to date heating degree days 306  
Since 1 July heating degree days 1515  
Cooling Degree Days 0 0  
Month to date cooling degree days 0  
Year to date cooling degree days 0  
Moisture  
Dew Point 32 °F    
Average Humidity 50    
Maximum Humidity 70    
Minimum Humidity 31    
Precipitation  
Precipitation 0.00 in 0.10 in 2.01 in (1995)
Month to date precipitation 1.42  
Year to date precipitation 1.42  
Snow  
Snow 0.00 in - - ()
Month to date snowfall  
Since 1 July snowfall  
Snow Depth -    
Sea Level Pressure  
Sea Level Pressure 29.89 in    
Wind  
Wind Speed 9 mph (West)    
Max Wind Speed 15 mph    
Max Gust Speed 25 mph    
Visibility 10 miles    
Events      
T = Trace of Precipitation, MM = Missing Value Source: NWS Daily Summary

Daily Weather History Graph

Daily Weather History Graph

Search for Another Location

Airport or City:

Trip Planner

Search our weather history database for the weather conditions in past years. The results will help you decide how hot, cold, wet, or windy it might be!

Date:

Astronomy

Jan. 13, 2014 Rise Set
Actual Time 7:23 AM CST 5:27 PM CST
Civil Twilight 6:56 AM CST 5:55 PM CST
Nautical Twilight 6:25 AM CST 6:26 PM CST
Astronomical Twilight 5:54 AM CST 6:56 PM CST
Moon 3:42 PM CST (1/13) 5:13 AM CST (1/13)
Length of Visible Light 10h 58m
Length of Day
10h 03m
Waxing Gibbous, 95% of the Moon is Illuminated
Jan 13
Waxing Gibbous
Jan 15
Full
Jan 23
Last Quarter
Jan 30
New
Feb 6
First Quarter

Hourly Weather History & Observations

Time (CST) Temp. Windchill Dew Point Humidity Pressure Visibility Wind Dir Wind Speed Gust Speed Precip Events Conditions
12:15 AM - - - N/A% 29.79 in 10.0 mi SSW 12.7 mph 20.7 mph N/A   Clear
12:35 AM - - - N/A% 29.78 in 10.0 mi SSW 15.0 mph 23.0 mph N/A   Clear
12:55 AM - - - N/A% 29.79 in 10.0 mi SSW 9.2 mph 23.0 mph N/A   Clear
1:15 AM - - - N/A% 29.79 in 10.0 mi SW 12.7 mph 24.2 mph N/A   Clear
1:35 AM - - - N/A% 29.79 in 10.0 mi SW 12.7 mph 21.9 mph N/A   Clear
1:55 AM - - - N/A% 29.80 in 10.0 mi SW 8.1 mph 17.3 mph N/A   Clear
2:15 AM - - - N/A% 29.81 in 10.0 mi SW 9.2 mph 16.1 mph N/A   Mostly Cloudy
2:35 AM - - - N/A% 29.81 in 10.0 mi SW 8.1 mph 17.3 mph N/A   Overcast
2:55 AM - - - N/A% 29.80 in 10.0 mi SW 11.5 mph 19.6 mph N/A   Mostly Cloudy
3:15 AM - - - N/A% 29.79 in 10.0 mi SW 13.8 mph 23.0 mph N/A   Scattered Clouds
3:35 AM - - - N/A% 29.79 in 10.0 mi SW 10.4 mph 25.3 mph N/A   Mostly Cloudy
3:55 AM - - - N/A% 29.78 in 10.0 mi SW 11.5 mph 18.4 mph N/A   Overcast
4:15 AM - - - N/A% 29.78 in 10.0 mi SW 8.1 mph 19.6 mph N/A   Mostly Cloudy
4:35 AM - - - N/A% 29.76 in 10.0 mi SW 9.2 mph 17.3 mph N/A   Mostly Cloudy
4:55 AM - - - N/A% 29.76 in 10.0 mi WSW 6.9 mph - N/A   Overcast
5:15 AM - - - N/A% 29.78 in 10.0 mi West 11.5 mph 21.9 mph N/A   Overcast
5:35 AM - - - N/A% 29.78 in 10.0 mi SW 6.9 mph - N/A   Overcast
5:55 AM - - - N/A% 29.78 in 10.0 mi WSW 6.9 mph - N/A   Drizzle
6:15 AM - - - N/A% 29.80 in 10.0 mi WNW 3.5 mph - N/A   Overcast
6:35 AM - - - N/A% 29.79 in 10.0 mi South 3.5 mph - N/A   Overcast
6:55 AM - - - N/A% 29.80 in 10.0 mi WNW 3.5 mph - N/A   Overcast
7:15 AM - - - N/A% 29.81 in 10.0 mi West 9.2 mph - N/A   Overcast
7:35 AM - - - N/A% 29.82 in 10.0 mi West 6.9 mph - N/A   Overcast
7:55 AM - - - N/A% 29.83 in 10.0 mi West 9.2 mph - N/A   Scattered Clouds
8:15 AM - - - N/A% 29.85 in 10.0 mi West 6.9 mph - N/A   Clear
8:35 AM - - - N/A% 29.86 in 10.0 mi WSW 6.9 mph - N/A   Clear
8:55 AM - - - N/A% 29.87 in 10.0 mi West 10.4 mph - N/A   Clear
9:15 AM - - - N/A% 29.89 in - West 11.5 mph - N/A   Unknown
9:35 AM 55.4 °F - 33.8 °F 44% 29.90 in - West 10.4 mph - N/A   Clear
9:55 AM 55.4 °F - 33.8 °F 44% 29.91 in - West 8.1 mph - N/A   Clear
10:15 AM 55.4 °F - 32.0 °F 41% 29.92 in - NW 5.8 mph - N/A   Clear
10:35 AM 55.4 °F - 32.0 °F 41% 29.92 in - NNW 8.1 mph - N/A   Clear
10:55 AM 55.4 °F - 32.0 °F 41% 29.92 in - NW 9.2 mph - N/A   Clear
11:15 AM 57.2 °F - 32.0 °F 38% 29.92 in - NNW 8.1 mph - N/A   Clear
11:35 AM 57.2 °F - 32.0 °F 38% 29.91 in - NNW 8.1 mph - N/A   Clear
11:55 AM 59.0 °F - 32.0 °F 36% 29.91 in - NNW 9.2 mph - N/A   Clear
12:15 PM 59.0 °F - 32.0 °F 36% 29.89 in - North 11.5 mph - N/A   Clear
12:35 PM 60.8 °F - 32.0 °F 34% 29.89 in - WNW 8.1 mph - N/A   Clear
12:55 PM 60.8 °F - 32.0 °F 34% 29.88 in - WNW 10.4 mph - N/A   Clear
1:15 PM 60.8 °F - 32.0 °F 34% 29.88 in - WNW 11.5 mph 21.9 mph N/A   Clear
1:35 PM 60.8 °F - 30.2 °F 31% 29.88 in - WNW 9.2 mph 16.1 mph N/A   Clear
1:55 PM - - - N/A% - - North - - N/A   Unknown
2:15 PM - - - N/A% - - North - - N/A   Unknown
2:35 PM 60.8 °F - 32.0 °F 34% 29.89 in - WNW 9.2 mph 19.6 mph N/A   Unknown
2:55 PM 60.8 °F - 30.2 °F 31% 29.90 in - NW 12.7 mph 17.3 mph N/A   Clear
3:35 PM - - - N/A% 29.91 in - NW 11.5 mph - N/A   Unknown
3:55 PM 59.0 °F - 32.0 °F 36% 29.92 in 10.0 mi WNW 11.5 mph - N/A   Clear
4:15 PM 59.0 °F - 32.0 °F 36% 29.93 in 10.0 mi NW 10.4 mph - N/A   Clear
4:35 PM 57.2 °F - 32.0 °F 38% 29.94 in 10.0 mi WNW 15.0 mph 20.7 mph N/A   Clear
4:55 PM 55.4 °F - 32.0 °F 41% 29.95 in 10.0 mi WNW 13.8 mph - N/A   Clear
5:15 PM 55.4 °F - 32.0 °F 41% 29.95 in 10.0 mi WNW 10.4 mph - N/A   Clear
5:35 PM 53.6 °F - 32.0 °F 44% 29.96 in 10.0 mi WNW 8.1 mph - N/A   Clear
5:55 PM 50.0 °F - 33.8 °F 54% 29.96 in 10.0 mi West 8.1 mph - N/A   Clear
6:15 PM 50.0 °F - 33.8 °F 54% 29.96 in 10.0 mi West 5.8 mph - N/A   Clear
6:35 PM 50.0 °F - 33.8 °F 54% 29.98 in 10.0 mi West 5.8 mph - N/A   Clear
6:55 PM 48.2 °F - 32.0 °F 54% 29.98 in 10.0 mi West 3.5 mph - N/A   Clear
7:15 PM 46.4 °F - 32.0 °F 57% 29.99 in 10.0 mi Calm Calm - N/A   Clear
7:35 PM 44.6 °F - 32.0 °F 61% 29.99 in 10.0 mi Calm Calm - N/A   Clear
7:55 PM 46.4 °F 45.2 °F 32.0 °F 57% 30.00 in 10.0 mi WSW 3.5 mph - N/A   Clear
8:15 PM 42.8 °F 41.1 °F 32.0 °F 66% 30.01 in 10.0 mi WSW 3.5 mph - N/A   Clear
8:35 PM 41.0 °F 39.0 °F 32.0 °F 70% 30.00 in 10.0 mi WSW 3.5 mph - N/A   Clear
8:55 PM 42.8 °F 40.1 °F 32.0 °F 66% 30.01 in 10.0 mi SW 4.6 mph - N/A   Clear
9:15 PM 41.0 °F 38.0 °F 32.0 °F 70% 30.01 in 10.0 mi West 4.6 mph - N/A   Clear
9:35 PM 44.6 °F 43.1 °F 32.0 °F 61% 30.01 in 10.0 mi West 3.5 mph - N/A   Clear
9:55 PM 39.2 °F 35.9 °F 30.2 °F 70% 30.02 in 10.0 mi West 4.6 mph - N/A   Clear
10:15 PM 41.0 °F 37.1 °F 32.0 °F 70% 30.02 in 10.0 mi West 5.8 mph - N/A   Clear
10:35 PM 41.0 °F 38.0 °F 32.0 °F 70% 30.02 in 10.0 mi West 4.6 mph - N/A   Clear
10:55 PM 41.0 °F 38.0 °F 32.0 °F 70% 30.02 in 10.0 mi West 4.6 mph - N/A   Clear
11:15 PM 41.0 °F 38.0 °F 32.0 °F 70% 30.01 in 10.0 mi West 4.6 mph - N/A   Clear
11:35 PM 41.0 °F 38.0 °F 32.0 °F 70% 30.01 in 10.0 mi West 4.6 mph - N/A   Clear
11:55 PM 41.0 °F 38.0 °F 30.2 °F 65% 30.01 in 10.0 mi West 4.6 mph - N/A   Clear